Flight Track Log - Related Links

Times and Time Zones

All times are in EDT time to prevent confusion due to time zone crossing. See the N575EW flight status page for this flight to view local times or setup timezone preferences in your user account.

Time Position Orientation Groundspeed Altitude Reporting Facility
EDT Latitude Longitude Course Direction KTS MPH feet Rate Location/Type
Sun 03:20:32 PM 25.9089 -80.2706 76° East 127 146 400  Level Miami Center
Sun 03:20:43 PM 25.9114 -80.2592 76° East 143 165 800 2,451 Climbing Miami Center
Sun 03:21:43 PM 25.9186 -80.2133 80° East 162 186 3,300 1,899 Climbing Miami Center
Sun 03:22:02 PM 25.9292 -80.2042 38° Northeast 182 209 3,300 1,475 Level Miami Center
Sun 03:22:44 PM 25.9622 -80.2283 327° Northwest 224 258 4,800 1,700 Climbing Miami Center
Sun 03:23:02 PM 25.9703 -80.2378 313° West 231 266 5,000 2,361 Climbing Miami Center
Sun 03:23:45 PM 25.9772 -80.3028 277° West 225 259 7,200 2,459 Climbing Miami Center
Sun 03:24:03 PM 25.9853 -80.3144 308° West 221 254 7,500 1,970 Climbing Miami Center
Sun 03:24:52 PM 25.9858 -80.3744 271° West 217 250 9,400 1,932 Climbing Miami Center
Sun 03:25:02 PM 25.9897 -80.3839 295° West 221 254 9,400 1,091 Level Miami Center
Sun 03:25:47 PM 25.9925 -80.4442 273° West 268 308 10,400 1,180 Climbing Miami Center
Sun 03:26:03 PM 25.9964 -80.4558 290° West 269 310 10,600 1,500 Climbing Miami Center
Sun 03:27:03 PM 26.0069 -80.5369 278° West 279 321 12,300 1,966 Climbing Miami Center
Sun 03:28:02 PM 26.0300 -80.6117 289° West 269 310 14,500 2,067 Climbing Miami Center
Sun 03:29:02 PM 26.0597 -80.6772 297° West 256 295 16,400 1,800 Climbing Miami Center
Sun 03:30:02 PM 26.0872 -80.7453 294° West 245 282 18,100 1,250 Climbing Miami Center
Sun 03:31:02 PM 26.1167 -80.8156 295° West 240 276 18,900 446 Climbing Miami Center
Sun 03:32:03 PM 26.1797 -80.8756 320° Northwest 256 295 19,000 200 Climbing Miami Center
Sun 03:33:02 PM 26.2553 -80.9339 325° Northwest 309 356 19,300 500 Climbing Miami Center
Sun 03:34:03 PM 26.3372 -80.9992 324° Northwest 334 384 20,000 350 Climbing Miami Center
Sun 03:35:02 PM 26.4108 -81.0528 327° Northwest 339 390 20,000 605 Level Miami Center
Sun 03:36:02 PM 26.4883 -81.1158 324° Northwest 344 396 21,200 1,300 Climbing Miami Center
Sun 03:37:02 PM 26.5594 -81.1764 323° Northwest 316 364 22,600 1,140 Climbing Miami Center
Sun 03:38:03 PM 26.6269 -81.2300 325° Northwest 305 351 23,500 694 Climbing Miami Center
Sun 03:39:03 PM 26.7006 -81.2817 328° Northwest 305 351 24,000 252 Climbing Miami Center
Sun 03:40:02 PM 26.7811 -81.3056 345° North 318 366 24,000  Level Miami Center
Sun 03:41:03 PM 26.8722 -81.3344 344° North 335 386 24,000  Level Miami Center
Sun 03:42:03 PM 26.9775 -81.3689 344° North 346 398 24,000  Level Miami Center
Sun 03:43:02 PM 27.0725 -81.4006 343° North 351 404 24,000  Level Miami Center
Sun 03:44:02 PM 27.1675 -81.4322 343° North 358 412 24,000  Level Miami Center
Sun 03:45:02 PM 27.2544 -81.4592 345° North 358 412 24,000  Level Miami Center
Sun 03:46:03 PM 27.3494 -81.4908 344° North 353 406 24,000  Level Miami Center
Sun 03:47:03 PM 27.4503 -81.5394 337° Northwest 358 412 24,000  Level Miami Center
Sun 03:48:03 PM 27.5450 -81.5714 343° North 358 412 24,000  Level Miami Center
Sun 03:49:03 PM 27.6400 -81.6033 343° North 358 412 24,000  Level Miami Center
Sun 03:50:02 PM 27.7269 -81.6281 346° North 358 412 24,000  Level Miami Center
Sun 03:51:02 PM 27.8322 -81.6631 344° North 353 406 24,000  Level Miami Center
Sun 03:52:42 PM 27.9900 -81.7128 344° North 349 402 24,000  Level Jacksonville Center
Sun 03:53:42 PM 28.0842 -81.7444 343° North 349 402 24,000  Level Jacksonville Center
Sun 03:54:42 PM 28.1806 -81.7742 345° North 349 402 24,000 -100 Level Jacksonville Center
Sun 03:55:42 PM 28.2767 -81.8036 345° North 354 407 23,800 -450 Descending Jacksonville Center
Sun 03:56:42 PM 28.3753 -81.8381 343° North 359 413 23,100 -750 Descending Jacksonville Center
Sun 03:57:42 PM 28.4756 -81.8725 343° North 365 420 22,300 -750 Descending Jacksonville Center
Sun 03:58:42 PM 28.5739 -81.9022 345° North 365 420 21,600 -700 Descending Jacksonville Center
Sun 03:59:42 PM 28.6703 -81.9319 345° North 359 413 20,900 -800 Descending Jacksonville Center
Sun 04:00:42 PM 28.7622 -81.9689 341° North 359 413 20,000 -1,250 Descending Jacksonville Center
Sun 04:01:42 PM 28.8483 -82.0272 329° Northwest 359 413 18,400 -1,250 Descending Jacksonville Center
Sun 04:02:42 PM 28.9383 -82.0694 338° Northwest 354 407 17,500 -450 Descending Jacksonville Center
Sun 04:03:42 PM 29.0281 -82.0875 350° North 336 387 17,500  Level Jacksonville Center
Sun 04:04:42 PM 29.1158 -82.1131 346° North 326 375 17,500  Level Jacksonville Center
Sun 04:05:42 PM 29.2017 -82.1336 348° North 320 368 17,500 -58 Level Jacksonville Center
Sun 04:06:25 PM 29.2581 -82.1547 342° North 312 359 17,400 -700 Descending Jacksonville Center
Sun 04:06:42 PM 29.2875 -82.1569 356° North 315 362 16,800 -3,243 Descending Jacksonville Center
Sun 04:07:02 PM 29.3144 -82.1686 339° North 318 366 15,400 -3,700 Descending Jacksonville Center
Sun 04:07:42 PM 29.3731 -82.1753 354° North 315 362 13,100 -3,836 Descending Jacksonville Center
Sun 04:08:03 PM 29.4044 -82.1847 345° North 310 357 11,500 -3,900 Descending Jacksonville Center
Sun 04:08:42 PM 29.4567 -82.1914 354° North 315 362 9,200 -3,738 Descending Jacksonville Center
Sun 04:09:04 PM 29.4839 -82.2008 343° North 293 337 7,700 -3,800 Descending Jacksonville Center
Sun 04:09:42 PM 29.5300 -82.2314 330° Northwest 302 348 5,400 -3,443 Descending Jacksonville Center
Sun 04:10:05 PM 29.5489 -82.2575 310° West 284 327 4,200 -2,600 Descending Jacksonville Center
Sun 04:10:42 PM 29.5844 -82.2931 319° Northwest 280 322 2,800 -2,164 Descending Jacksonville Center
Sun 04:11:06 PM 29.6014 -82.3097 319° Northwest 247 284 2,000 -1,400 Descending Jacksonville Center
Sun 04:11:42 PM 29.6411 -82.3239 343° North 257 296 1,400 -909 Descending Jacksonville Center
Sun 04:12:12 PM 29.6639 -82.3142 20° North 176 203 1,000 -400 Descending Jacksonville Center
Sun 04:12:42 PM 29.6911 -82.3331 329° Northwest 210 242 1,000 5,667 Level Jacksonville Center
Sun 04:13:42 PM 29.7475 -82.3567 340° North 210 242 9,500 4,250 Climbing Jacksonville Center
Sun 04:14:42 PM 29.8061 -82.3803 341° North 210 242 9,500  Level Jacksonville Center
Sun 04:15:42 PM 29.8625 -82.4039 340° North 210 242 9,500  Level Jacksonville Center
Sun 04:17:00 PM 29.7723 -82.3347 146° Southeast  Level FlightAware Approximate
Sun 04:24:00 PM 29.6901 -82.2718 145° Southeast  Level Estimated
Sun 04:25:00 PM 29.6901 -82.2718 145° Southeast  Level Estimated
Sun 04:26:00 PM 29.6901 -82.2718 145° Southeast  Level Estimated
Sun 04:27:00 PM 29.6901 -82.2718 145° Southeast  Level Estimated
Sun 04:28:00 PM 29.6901 -82.2718 145° Southeast  Level Estimated
Sun 04:29:00 PM 29.6901 -82.2718 145° Southeast  Level Estimated
Sun 04:30:00 PM 29.6901 -82.2718 145° Southeast  Level Estimated
Sun 04:31:00 PM 29.6901 -82.2718 145° Southeast  Level Estimated
Sun 04:32:00 PM 29.6901 -82.2718 145° Southeast  Level Estimated
Sun 04:33:00 PM 29.6901 -82.2718 145° Southeast  Level Estimated

Login

Don't have an account? Register now (free) for customized features, flight alerts, and more!